QPF
0.03 0.05 0.09 0.10 0.12 0.14 0.18 0.26 0.28 0.22 0.14 0.13 0.13 0.12 0.10 0.09 0.07 0.06 0.07 0.05 0.03 0.02 0.02 0.01 0.01 0.01 0.01 0.02 0.02 0.02 0.02 0.02 0.01 0.01 0.02 0.02 0.02 0.02 0.02 0.03 0.04 0.03 0.04
0.02 0.03 0.05 0.07 0.10 0.14 0.13 0.18 0.22 0.21 0.14 0.13 0.13 0.13 0.12 0.09 0.08 0.06 0.05 0.04 0.03 0.02 0.01 0.01 0.01 0.01 0.01 0.01 0.01 0.01 0.01 0.01 0.01 0.01 0.02 0.02 0.02 0.01 0.01 0.01 0.01 0.02 0.03
0.02 0.02 0.03 0.05 0.10 0.14 0.13 0.15 0.17 0.16 0.15 0.15 0.14 0.10 0.09 0.08 0.06 0.05 0.04 0.04 0.02 0.01 0.01 0.00 0.00 0.00 0.00 0.00 0.01 0.01 0.01 0.01 0.00 0.01 0.01 0.02 0.02 0.01 0.01 0.01 0.00 0.01 0.01
0.01 0.02 0.03 0.05 0.10 0.11 0.11 0.12 0.14 0.12 0.15 0.16 0.13 0.08 0.08 0.07 0.06 0.06 0.05 0.03 0.02 0.01 0.00 0.00 0.00 0.00 0.00 0.00 0.00 0.00 0.00 0.00 0.00 0.00 0.00 0.01 0.01 0.01 0.02 0.01 0.00 0.00 0.01
0.00 0.01 0.03 0.07 0.12 0.09 0.08 0.10 0.11 0.11 0.13 0.14 0.14 0.14 0.12 0.11 0.09 0.06 0.04 0.02 0.01 0.01 0.00 0.00 0.00 0.00 0.00 0.00 0.00 0.00 0.00 0.00 0.00 0.00 0.00 0.00 0.00 0.01 0.01 0.01 0.01 0.00 0.00
0.00 0.01 0.02 0.05 0.09 0.08 0.08 0.08 0.10 0.11 0.12 0.12 0.15 0.19 0.15 0.10 0.08 0.05 0.03 0.02 0.01 0.00 0.00 0.00 0.00 0.00 0.00 0.00 0.00 0.00 0.00 0.00 0.00 0.00 0.00 0.00 0.00 0.01 0.01 0.01 0.01 0.01 0.00
0.00 0.01 0.01 0.03 0.06 0.07 0.07 0.08 0.08 0.10 0.11 0.11 0.11 0.15 0.13 0.09 0.08 0.05 0.04 0.02 0.01 0.00 0.00 0.00 0.00 0.00 0.00 0.00 0.00 0.00 0.00 0.00 0.00 0.00 0.00 0.00 0.00 0.00 0.00 0.00 0.00 0.00 0.00
0.00 0.00 0.01 0.02 0.05 0.05 0.06 0.07 0.08 0.08 0.09 0.08 0.08 0.09 0.08 0.07 0.06 0.04 0.03 0.02 0.01 0.00 0.00 0.00 0.00 0.00 0.00 0.00 0.00 0.00 0.00 0.00 0.00 0.00 0.00 0.00 0.00 0.00 0.00 0.00 0.00 0.00 0.00
0.00 0.00 0.01 0.02 0.03 0.04 0.05 0.05 0.05 0.05 0.07 0.08 0.07 0.06 0.06 0.06 0.05 0.04 0.03 0.02 0.01 0.01 0.01 0.00 0.00 0.00 0.00 0.00 0.00 0.00 0.00 0.00 0.00 0.00 0.00 0.00 0.00 0.00 0.00 0.00 0.00 0.00 0.00
0.00 0.00 0.02 0.03 0.03 0.03 0.04 0.04 0.04 0.04 0.06 0.07 0.08 0.05 0.05 0.06 0.05 0.04 0.04 0.03 0.02 0.01 0.01 0.01 0.00 0.00 0.00 0.00 0.00 0.00 0.00 0.00 0.00 0.00 0.00 0.00 0.00 0.00 0.00 0.00 0.00 0.00 0.00
0.00 0.00 0.01 0.03 0.02 0.02 0.04 0.05 0.03 0.03 0.04 0.06 0.08 0.07 0.07 0.07 0.06 0.05 0.04 0.03 0.02 0.02 0.01 0.01 0.01 0.01 0.01 0.01 0.01 0.01 0.00 0.00 0.00 0.00 0.00 0.00 0.00 0.00 0.00 0.00 0.00 0.00 0.00
0.00 0.00 0.01 0.04 0.02 0.02 0.04 0.04 0.03 0.03 0.04 0.06 0.08 0.08 0.08 0.08 0.07 0.06 0.05 0.04 0.04 0.04 0.03 0.03 0.03 0.02 0.01 0.02 0.02 0.01 0.01 0.01 0.01 0.00 0.00 0.00 0.00 0.01 0.00 0.00 0.00 0.00 0.00
0.00 0.00 0.01 0.04 0.03 0.02 0.03 0.03 0.02 0.04 0.04 0.06 0.07 0.07 0.06 0.06 0.07 0.07 0.06 0.05 0.05 0.05 0.05 0.04 0.04 0.04 0.03 0.03 0.03 0.02 0.02 0.02 0.01 0.02 0.01 0.01 0.01 0.01 0.02 0.01 0.01 0.01 0.01
0.00 0.00 0.00 0.01 0.03 0.02 0.02 0.02 0.03 0.04 0.04 0.06 0.07 0.06 0.05 0.05 0.07 0.06 0.05 0.06 0.06 0.05 0.05 0.04 0.04 0.04 0.03 0.03 0.03 0.04 0.03 0.02 0.02 0.01 0.01 0.02 0.02 0.02 0.03 0.03 0.03 0.03 0.03
0.00 0.00 0.00 0.00 0.01 0.01 0.01 0.02 0.03 0.03 0.04 0.05 0.06 0.07 0.06 0.07 0.07 0.05 0.04 0.05 0.05 0.04 0.04 0.04 0.03 0.03 0.03 0.03 0.04 0.05 0.05 0.05 0.04 0.03 0.03 0.02 0.01 0.01 0.02 0.02 0.03 0.03 0.04
0.00 0.00 0.00 0.00 0.00 0.00 0.01 0.02 0.02 0.02 0.02 0.04 0.07 0.06 0.05 0.06 0.07 0.06 0.05 0.05 0.06 0.06 0.05 0.05 0.04 0.03 0.03 0.04 0.06 0.06 0.06 0.06 0.05 0.05 0.04 0.04 0.03 0.03 0.03 0.02 0.03 0.03 0.03
0.01 0.00 0.01 0.01 0.01 0.01 0.02 0.02 0.02 0.04 0.05 0.07 0.08 0.08 0.08 0.07 0.06 0.06 0.06 0.06 0.07 0.08 0.08 0.07 0.06 0.06 0.05 0.04 0.04 0.04 0.06 0.05 0.05 0.05 0.05 0.05 0.04 0.04 0.04 0.04 0.03 0.03 0.02
0.01 0.01 0.01 0.01 0.02 0.02 0.02 0.03 0.04 0.05 0.06 0.08 0.07 0.07 0.07 0.06 0.05 0.05 0.07 0.08 0.07 0.06 0.05 0.05 0.05 0.05 0.05 0.04 0.03 0.03 0.04 0.05 0.05 0.05 0.05 0.04 0.03 0.03 0.02 0.02 0.02 0.02 0.02
0.01 0.01 0.01 0.02 0.03 0.03 0.03 0.03 0.03 0.05 0.07 0.08 0.08 0.07 0.05 0.05 0.05 0.05 0.05 0.05 0.05 0.04 0.03 0.03 0.03 0.04 0.04 0.05 0.04 0.04 0.04 0.05 0.04 0.03 0.03 0.02 0.02 0.02 0.02 0.01 0.01 0.01 0.01
0.02 0.01 0.02 0.02 0.02 0.03 0.03 0.03 0.03 0.05 0.06 0.06 0.06 0.05 0.05 0.05 0.05 0.05 0.04 0.04 0.04 0.05 0.05 0.05 0.05 0.05 0.05 0.06 0.05 0.05 0.05 0.05 0.04 0.03 0.02 0.02 0.02 0.02 0.01 0.01 0.02 0.02 0.01
0.03 0.02 0.02 0.03 0.03 0.04 0.04 0.05 0.04 0.04 0.04 0.03 0.03 0.04 0.04 0.05 0.06 0.06 0.05 0.05 0.04 0.04 0.03 0.03 0.02 0.03 0.04 0.05 0.07 0.07 0.08 0.08 0.07 0.06 0.05 0.04 0.04 0.02 0.02 0.01 0.01 0.01 0.01
0.04 0.03 0.03 0.03 0.04 0.04 0.04 0.05 0.05 0.04 0.03 0.02 0.03 0.03 0.03 0.03 0.03 0.03 0.02 0.02 0.02 0.02 0.01 0.02 0.02 0.03 0.03 0.04 0.04 0.04 0.04 0.04 0.04 0.03 0.03 0.02 0.02 0.01 0.01 0.01 0.01 0.02 0.01
0.03 0.03 0.03 0.03 0.03 0.04 0.05 0.06 0.05 0.06 0.05 0.03 0.02 0.01 0.01 0.01 0.01 0.00 0.01 0.01 0.01 0.01 0.01 0.01 0.01 0.02 0.01 0.02 0.02 0.02 0.02 0.02 0.01 0.01 0.01 0.01 0.01 0.01 0.01 0.01 0.01 0.01 0.01
0.03 0.03 0.03 0.03 0.03 0.03 0.04 0.04 0.03 0.03 0.04 0.03 0.02 0.02 0.02 0.01 0.01 0.01 0.00 0.01 0.01 0.01 0.01 0.00 0.00 0.00 0.00 0.00 0.00 0.00 0.00 0.00 0.00 0.01 0.01 0.01 0.01 0.01 0.01 0.01 0.01 0.01 0.01
0.02 0.02 0.03 0.03 0.03 0.03 0.03 0.02 0.02 0.02 0.03 0.03 0.03 0.02 0.02 0.01 0.01 0.01 0.01 0.00 0.00 0.00 0.00 0.00 0.00 0.00 0.00 0.00 0.00 0.00 0.00 0.00 0.00 0.00 0.00 0.00 0.00 0.00 0.01 0.01 0.01 0.01 0.01
0.04 0.03 0.02 0.02 0.02 0.02 0.02 0.02 0.02 0.02 0.02 0.02 0.02 0.01 0.01 0.01 0.01 0.01 0.00 0.00 0.00 0.00 0.00 0.00 0.00 0.00 0.00 0.00 0.00 0.00 0.00 0.00 0.00 0.00 0.00 0.00 0.00 0.00 0.01 0.01 0.01 0.01 0.01
MSLP
1008.67 1008.97 1009.34 1009.76 1010.26 1010.82 1011.44 1012.10 1012.78 1013.44 1014.05 1014.59 1015.04 1015.39 1015.67 1015.89 1016.08 1016.26 1016.46 1016.66 1016.87 1017.07 1017.25 1017.40 1017.51 1017.60 1017.67 1017.75 1017.87 1018.02 1018.23 1018.47 1018.72 1018.96 1019.14 1019.25 1019.27 1019.21 1019.06 1018.88 1018.68 1018.52 1018.43
1008.71 1009.01 1009.36 1009.77 1010.24 1010.79 1011.41 1012.08 1012.79 1013.50 1014.17 1014.76 1015.25 1015.63 1015.91 1016.10 1016.25 1016.38 1016.52 1016.68 1016.87 1017.07 1017.27 1017.44 1017.59 1017.70 1017.78 1017.86 1017.96 1018.08 1018.26 1018.47 1018.70 1018.93 1019.12 1019.25 1019.29 1019.24 1019.11 1018.91 1018.70 1018.50 1018.35
1008.72 1009.03 1009.39 1009.78 1010.23 1010.75 1011.36 1012.03 1012.77 1013.51 1014.23 1014.88 1015.42 1015.83 1016.11 1016.29 1016.40 1016.48 1016.57 1016.69 1016.85 1017.05 1017.26 1017.47 1017.66 1017.80 1017.92 1018.00 1018.09 1018.19 1018.32 1018.49 1018.69 1018.90 1019.08 1019.23 1019.29 1019.27 1019.17 1019.00 1018.79 1018.59 1018.41
1008.70 1009.04 1009.40 1009.79 1010.22 1010.72 1011.31 1011.97 1012.71 1013.49 1014.24 1014.94 1015.52 1015.97 1016.27 1016.45 1016.53 1016.57 1016.62 1016.70 1016.84 1017.03 1017.27 1017.51 1017.75 1017.94 1018.09 1018.20 1018.29 1018.37 1018.46 1018.59 1018.74 1018.92 1019.09 1019.23 1019.32 1019.33 1019.27 1019.14 1018.97 1018.78 1018.60
1008.68 1009.06 1009.44 1009.83 1010.24 1010.72 1011.27 1011.92 1012.65 1013.43 1014.21 1014.94 1015.57 1016.05 1016.37 1016.55 1016.63 1016.65 1016.66 1016.72 1016.84 1017.04 1017.30 1017.59 1017.87 1018.12 1018.32 1018.46 1018.55 1018.62 1018.68 1018.76 1018.87 1019.00 1019.15 1019.28 1019.37 1019.42 1019.39 1019.31 1019.18 1019.02 1018.86
1008.67 1009.10 1009.51 1009.91 1010.32 1010.77 1011.28 1011.89 1012.59 1013.36 1014.15 1014.90 1015.55 1016.06 1016.41 1016.61 1016.69 1016.71 1016.71 1016.75 1016.87 1017.07 1017.35 1017.67 1018.00 1018.30 1018.54 1018.72 1018.83 1018.89 1018.93 1018.98 1019.04 1019.12 1019.23 1019.34 1019.43 1019.49 1019.50 1019.45 1019.35 1019.23 1019.09
1008.71 1009.19 1009.65 1010.07 1010.47 1010.89 1011.37 1011.92 1012.58 1013.31 1014.07 1014.81 1015.47 1016.00 1016.38 1016.60 1016.70 1016.73 1016.73 1016.78 1016.89 1017.10 1017.39 1017.73 1018.09 1018.43 1018.71 1018.91 1019.04 1019.10 1019.13 1019.14 1019.17 1019.21 1019.28 1019.36 1019.44 1019.50 1019.53 1019.50 1019.44 1019.34 1019.22
1008.76 1009.31 1009.82 1010.27 1010.68 1011.08 1011.51 1012.01 1012.60 1013.27 1013.99 1014.69 1015.34 1015.87 1016.27 1016.51 1016.64 1016.68 1016.71 1016.76 1016.88 1017.08 1017.37 1017.72 1018.09 1018.44 1018.73 1018.95 1019.10 1019.17 1019.19 1019.19 1019.19 1019.20 1019.25 1019.31 1019.37 1019.42 1019.45 1019.43 1019.38 1019.29 1019.19
1008.81 1009.43 1009.99 1010.49 1010.91 1011.29 1011.69 1012.13 1012.65 1013.25 1013.89 1014.55 1015.15 1015.67 1016.07 1016.33 1016.48 1016.55 1016.60 1016.66 1016.78 1016.98 1017.25 1017.59 1017.94 1018.28 1018.58 1018.80 1018.95 1019.03 1019.05 1019.05 1019.05 1019.06 1019.09 1019.14 1019.19 1019.24 1019.26 1019.24 1019.19 1019.11 1019.00
1008.79 1009.48 1010.11 1010.64 1011.09 1011.48 1011.85 1012.24 1012.70 1013.21 1013.78 1014.37 1014.92 1015.41 1015.79 1016.06 1016.23 1016.33 1016.39 1016.47 1016.59 1016.78 1017.03 1017.33 1017.65 1017.96 1018.23 1018.45 1018.59 1018.68 1018.73 1018.75 1018.78 1018.81 1018.85 1018.90 1018.96 1019.00 1019.01 1018.99 1018.93 1018.83 1018.72
1008.64 1009.39 1010.08 1010.66 1011.14 1011.55 1011.91 1012.28 1012.68 1013.14 1013.63 1014.14 1014.64 1015.08 1015.45 1015.72 1015.90 1016.02 1016.11 1016.20 1016.33 1016.50 1016.72 1016.98 1017.26 1017.53 1017.76 1017.96 1018.11 1018.22 1018.30 1018.36 1018.43 1018.51 1018.59 1018.67 1018.75 1018.79 1018.80 1018.77 1018.69 1018.59 1018.46
1008.35 1009.13 1009.85 1010.47 1011.00 1011.44 1011.82 1012.19 1012.57 1012.99 1013.43 1013.88 1014.32 1014.73 1015.07 1015.33 1015.53 1015.67 1015.79 1015.90 1016.03 1016.20 1016.40 1016.63 1016.86 1017.09 1017.30 1017.48 1017.63 1017.76 1017.88 1018.01 1018.14 1018.28 1018.43 1018.56 1018.66 1018.73 1018.74 1018.70 1018.60 1018.48 1018.32
1007.88 1008.67 1009.40 1010.06 1010.62 1011.11 1011.53 1011.94 1012.33 1012.74 1013.16 1013.59 1013.99 1014.37 1014.69 1014.95 1015.16 1015.33 1015.48 1015.63 1015.78 1015.96 1016.15 1016.36 1016.57 1016.77 1016.95 1017.13 1017.29 1017.46 1017.63 1017.82 1018.03 1018.25 1018.46 1018.65 1018.80 1018.89 1018.90 1018.85 1018.74 1018.59 1018.41
1007.30 1008.04 1008.76 1009.42 1010.02 1010.56 1011.06 1011.52 1011.97 1012.41 1012.85 1013.28 1013.68 1014.04 1014.36 1014.63 1014.86 1015.07 1015.26 1015.45 1015.64 1015.85 1016.06 1016.27 1016.47 1016.67 1016.85 1017.03 1017.22 1017.42 1017.65 1017.90 1018.19 1018.47 1018.75 1019.00 1019.19 1019.29 1019.31 1019.25 1019.12 1018.94 1018.73
1006.67 1007.33 1007.99 1008.64 1009.27 1009.86 1010.43 1010.98 1011.51 1012.03 1012.52 1012.98 1013.40 1013.78 1014.11 1014.41 1014.67 1014.92 1015.16 1015.41 1015.66 1015.91 1016.17 1016.41 1016.64 1016.85 1017.05 1017.24 1017.46 1017.69 1017.96 1018.27 1018.61 1018.96 1019.29 1019.58 1019.79 1019.91 1019.93 1019.84 1019.68 1019.47 1019.22
1006.08 1006.63 1007.21 1007.82 1008.45 1009.09 1009.74 1010.39 1011.02 1011.63 1012.21 1012.73 1013.20 1013.61 1013.98 1014.30 1014.61 1014.91 1015.21 1015.52 1015.84 1016.16 1016.48 1016.77 1017.05 1017.29 1017.52 1017.75 1017.98 1018.24 1018.55 1018.89 1019.26 1019.63 1019.99 1020.29 1020.51 1020.63 1020.63 1020.52 1020.32 1020.06 1019.77
1005.63 1006.05 1006.54 1007.09 1007.71 1008.38 1009.10 1009.84 1010.58 1011.29 1011.96 1012.56 1013.09 1013.55 1013.96 1014.33 1014.68 1015.03 1015.39 1015.77 1016.17 1016.57 1016.95 1017.31 1017.64 1017.94 1018.20 1018.45 1018.71 1018.98 1019.29 1019.63 1020.00 1020.37 1020.72 1021.00 1021.21 1021.30 1021.27 1021.12 1020.88 1020.58 1020.24
1005.41 1005.70 1006.09 1006.57 1007.16 1007.85 1008.61 1009.43 1010.25 1011.06 1011.81 1012.49 1013.09 1013.61 1014.07 1014.48 1014.87 1015.27 1015.69 1016.13 1016.59 1017.07 1017.53 1017.95 1018.34 1018.68 1018.98 1019.25 1019.51 1019.78 1020.06 1020.37 1020.70 1021.03 1021.33 1021.58 1021.74 1021.79 1021.71 1021.53 1021.25 1020.89 1020.50
1005.49 1005.67 1005.96 1006.37 1006.92 1007.60 1008.38 1009.23 1010.12 1010.99 1011.81 1012.55 1013.20 1013.77 1014.27 1014.71 1015.15 1015.59 1016.05 1016.55 1017.07 1017.60 1018.12 1018.61 1019.05 1019.43 1019.75 1020.02 1020.27 1020.50 1020.74 1020.99 1021.25 1021.50 1021.73 1021.91 1022.01 1022.00 1021.89 1021.66 1021.34 1020.95 1020.51
1005.89 1005.99 1006.20 1006.54 1007.04 1007.68 1008.44 1009.30 1010.20 1011.10 1011.95 1012.73 1013.41 1014.01 1014.54 1015.01 1015.47 1015.95 1016.44 1016.98 1017.54 1018.12 1018.69 1019.22 1019.69 1020.10 1020.43 1020.69 1020.90 1021.08 1021.25 1021.42 1021.58 1021.74 1021.88 1021.98 1022.01 1021.95 1021.79 1021.53 1021.18 1020.76 1020.30
1006.60 1006.66 1006.82 1007.10 1007.53 1008.11 1008.82 1009.63 1010.51 1011.39 1012.23 1013.01 1013.71 1014.32 1014.86 1015.36 1015.84 1016.33 1016.85 1017.41 1018.01 1018.61 1019.21 1019.77 1020.26 1020.67 1020.99 1021.23 1021.40 1021.51 1021.60 1021.66 1021.72 1021.78 1021.82 1021.83 1021.79 1021.68 1021.49 1021.21 1020.85 1020.42 1019.95
1007.60 1007.65 1007.77 1007.99 1008.35 1008.86 1009.49 1010.23 1011.03 1011.85 1012.65 1013.40 1014.08 1014.68 1015.23 1015.73 1016.22 1016.73 1017.27 1017.84 1018.45 1019.08 1019.69 1020.26 1020.75 1021.16 1021.46 1021.67 1021.78 1021.82 1021.81 1021.78 1021.74 1021.69 1021.63 1021.56 1021.46 1021.31 1021.10 1020.82 1020.47 1020.06 1019.60
1008.83 1008.88 1008.98 1009.16 1009.45 1009.86 1010.39 1011.02 1011.72 1012.45 1013.17 1013.86 1014.50 1015.08 1015.62 1016.12 1016.63 1017.14 1017.69 1018.28 1018.90 1019.53 1020.14 1020.71 1021.20 1021.59 1021.87 1022.03 1022.09 1022.07 1021.98 1021.85 1021.70 1021.56 1021.42 1021.28 1021.13 1020.96 1020.75 1020.49 1020.18 1019.80 1019.38
1010.19 1010.28 1010.37 1010.51 1010.73 1011.05 1011.46 1011.97 1012.54 1013.15 1013.78 1014.39 1014.97 1015.51 1016.03 1016.53 1017.04 1017.57 1018.13 1018.73 1019.35 1019.98 1020.59 1021.15 1021.63 1022.00 1022.25 1022.38 1022.39 1022.30 1022.14 1021.93 1021.70 1021.48 1021.27 1021.08 1020.90 1020.73 1020.53 1020.31 1020.04 1019.73 1019.36
1011.61 1011.73 1011.82 1011.94 1012.09 1012.31 1012.61 1012.99 1013.43 1013.92 1014.43 1014.95 1015.47 1015.97 1016.46 1016.95 1017.46 1018.00 1018.57 1019.17 1019.79 1020.42 1021.03 1021.58 1022.04 1022.39 1022.62 1022.71 1022.68 1022.55 1022.33 1022.06 1021.77 1021.49 1021.24 1021.01 1020.82 1020.66 1020.49 1020.32 1020.11 1019.86 1019.56
1012.98 1013.13 1013.24 1013.33 1013.44 1013.58 1013.78 1014.03 1014.35 1014.71 1015.11 1015.54 1015.98 1016.43 1016.89 1017.37 1017.87 1018.41 1018.98 1019.59 1020.21 1020.83 1021.42 1021.96 1022.40 1022.74 1022.94 1023.01 1022.95 1022.79 1022.53 1022.23 1021.91 1021.59 1021.31 1021.08 1020.89 1020.74 1020.61 1020.48 1020.34 1020.15 1019.91
Thickness
5762 5757 5752 5748 5744 5740 5737 5734 5732 5731 5730 5730 5729 5728 5728 5729 5731 5732 5730 5730 5731 5731 5730 5734 5730 5731 5732 5730 5730 5729 5727 5727 5727 5726 5725 5726 5727 5726 5724 5723 5723 5723 5721
5759 5754 5750 5747 5743 5740 5736 5733 5730 5730 5729 5729 5729 5728 5728 5728 5729 5729 5728 5728 5729 5729 5730 5731 5731 5731 5730 5728 5728 5726 5728 5729 5727 5726 5723 5720 5721 5722 5727 5725 5724 5724 5723
5758 5753 5748 5745 5742 5738 5736 5733 5730 5730 5728 5727 5726 5725 5724 5724 5725 5725 5726 5727 5727 5728 5729 5728 5730 5728 5730 5729 5727 5726 5725 5726 5726 5728 5724 5720 5718 5722 5725 5724 5725 5723 5723
5760 5753 5748 5744 5741 5738 5735 5732 5729 5728 5727 5726 5725 5724 5724 5723 5725 5725 5725 5725 5725 5726 5726 5726 5726 5726 5729 5727 5727 5728 5727 5725 5725 5725 5725 5725 5725 5721 5719 5723 5726 5724 5722
5761 5754 5749 5745 5742 5739 5735 5731 5727 5725 5724 5724 5724 5723 5724 5724 5725 5724 5722 5723 5724 5724 5725 5724 5724 5724 5726 5725 5725 5725 5725 5726 5726 5727 5725 5724 5723 5724 5720 5718 5721 5723 5725
5761 5755 5750 5746 5741 5738 5734 5730 5726 5723 5722 5721 5722 5723 5723 5722 5721 5720 5720 5721 5723 5723 5723 5723 5722 5723 5724 5722 5722 5722 5723 5724 5724 5726 5726 5724 5723 5723 5722 5719 5718 5720 5723
5761 5755 5749 5744 5739 5736 5732 5729 5725 5722 5721 5721 5721 5722 5721 5720 5718 5719 5719 5720 5722 5722 5721 5722 5720 5721 5720 5720 5720 5720 5722 5721 5720 5721 5723 5725 5725 5725 5723 5720 5719 5718 5721
5764 5757 5751 5745 5740 5736 5732 5729 5725 5721 5721 5720 5720 5719 5719 5719 5719 5718 5720 5720 5722 5723 5721 5719 5718 5718 5718 5718 5717 5720 5719 5718 5718 5719 5718 5720 5722 5722 5721 5720 5717 5715 5717
5765 5759 5752 5747 5742 5737 5733 5730 5725 5722 5720 5719 5718 5717 5718 5718 5718 5717 5717 5720 5720 5721 5719 5718 5717 5716 5715 5715 5715 5717 5715 5715 5716 5717 5716 5716 5719 5718 5718 5718 5716 5712 5710
5766 5760 5755 5749 5744 5739 5734 5730 5726 5723 5720 5719 5718 5717 5716 5715 5715 5715 5715 5717 5718 5717 5717 5716 5715 5715 5714 5713 5712 5713 5713 5711 5711 5712 5711 5711 5715 5715 5714 5714 5713 5711 5708
5767 5762 5756 5751 5746 5741 5736 5731 5727 5724 5721 5720 5718 5717 5715 5715 5714 5713 5714 5715 5715 5714 5714 5714 5714 5713 5712 5711 5710 5711 5710 5708 5708 5708 5707 5706 5706 5708 5710 5709 5708 5707 5705
5769 5764 5758 5752 5746 5742 5738 5733 5729 5725 5723 5721 5718 5716 5715 5714 5713 5713 5713 5713 5713 5713 5713 5713 5712 5712 5711 5710 5708 5707 5707 5705 5704 5704 5703 5703 5703 5701 5701 5701 5701 5701 5699
5768 5763 5757 5751 5747 5743 5740 5736 5732 5729 5726 5722 5719 5717 5715 5714 5713 5712 5712 5712 5711 5711 5712 5711 5710 5710 5709 5708 5706 5705 5704 5703 5702 5701 5700 5699 5698 5695 5696 5694 5695 5695 5695
5765 5761 5755 5750 5747 5744 5740 5737 5734 5731 5728 5724 5720 5717 5715 5714 5712 5711 5710 5709 5709 5709 5709 5709 5708 5707 5706 5705 5703 5701 5700 5698 5697 5696 5695 5694 5692 5689 5687 5687 5685 5685 5684
5762 5758 5753 5749 5746 5742 5739 5737 5734 5731 5728 5723 5719 5717 5715 5714 5711 5709 5708 5707 5707 5707 5706 5704 5703 5702 5701 5700 5698 5696 5694 5691 5689 5688 5686 5684 5681 5678 5676 5677 5676 5674 5673
5761 5757 5752 5748 5744 5741 5739 5736 5733 5730 5726 5721 5718 5716 5713 5711 5708 5707 5705 5703 5701 5700 5699 5697 5695 5693 5692 5688 5686 5686 5686 5683 5679 5676 5673 5671 5668 5665 5662 5660 5659 5658 5659
5758 5755 5751 5747 5743 5740 5738 5734 5731 5727 5722 5718 5716 5713 5710 5707 5705 5704 5700 5697 5694 5691 5689 5687 5685 5682 5678 5676 5675 5674 5675 5671 5668 5664 5661 5660 5657 5654 5652 5648 5646 5644 5641
5753 5749 5746 5742 5739 5737 5734 5731 5727 5722 5717 5713 5711 5708 5705 5702 5699 5696 5693 5689 5685 5681 5678 5676 5673 5670 5665 5663 5663 5662 5661 5658 5654 5651 5648 5646 5642 5640 5638 5637 5636 5633 5631
5744 5742 5741 5737 5734 5731 5728 5724 5719 5714 5710 5706 5703 5701 5698 5695 5691 5687 5682 5679 5675 5671 5667 5664 5661 5658 5653 5650 5650 5649 5649 5645 5641 5638 5635 5632 5628 5622 5621 5622 5621 5619 5617
5732 5731 5731 5728 5724 5722 5720 5715 5710 5705 5700 5697 5694 5692 5689 5686 5681 5675 5671 5668 5665 5661 5657 5652 5648 5645 5640 5636 5636 5635 5638 5633 5630 5625 5621 5614 5611 5606 5604 5606 5606 5604 5602
5717 5718 5718 5715 5712 5710 5708 5703 5698 5693 5689 5687 5684 5680 5677 5673 5669 5664 5660 5657 5654 5649 5644 5639 5634 5631 5626 5622 5620 5619 5621 5620 5617 5614 5610 5602 5593 5590 5588 5586 5587 5584 5581
5702 5703 5702 5699 5697 5696 5693 5688 5683 5679 5677 5675 5671 5667 5664 5662 5657 5653 5648 5645 5641 5636 5632 5628 5624 5619 5613 5607 5604 5602 5600 5599 5599 5597 5593 5586 5578 5575 5572 5572 5569 5566 5564
5687 5687 5685 5683 5681 5679 5677 5673 5668 5666 5663 5660 5656 5653 5651 5648 5645 5641 5637 5634 5631 5629 5624 5620 5615 5609 5603 5595 5590 5588 5585 5582 5582 5579 5571 5567 5564 5561 5561 5557 5553 5551 5554
5671 5670 5670 5667 5664 5662 5660 5657 5654 5652 5650 5646 5643 5640 5637 5634 5630 5628 5627 5623 5620 5617 5612 5608 5603 5598 5591 5585 5580 5577 5575 5569 5568 5565 5559 5553 5550 5547 5544 5542 5542 5540 5537
5656 5655 5653 5651 5648 5646 5644 5642 5640 5639 5637 5634 5631 5628 5624 5620 5614 5609 5603 5603 5595 5594 5595 5593 5588 5583 5575 5560 5553 5554 5555 5551 5547 5543 5546 5544 5541 5536 5532 5528 5524 5520 5516
5642 5640 5639 5637 5635 5633 5631 5629 5627 5626 5625 5622 5619 5618 5614 5609 5605 5597 5587 5576 5575 5571 5568 5564 5562 5554 5547 5540 5537 5533 5530 5527 5524 5525 5530 5525 5520 5515 5511 5507 5503 5499 5496